Total_Precipitation_Accumulation
0.00 0.00 0.00 0.00 0.00 0.00 0.00 0.00 0.00 0.00 0.00 0.00 0.00 0.00 0.00 0.00 0.00 0.00 0.00 0.00 0.00 0.00 0.00 0.00 0.00 0.00 0.00 0.00 0.00 0.00 0.00 0.00 0.00 0.00 0.00 0.00 0.00 0.00 0.00 0.00 0.00 0.00 0.01 0.00 0.00 0.01 0.00 0.02 0.01
0.00 0.00 0.00 0.00 0.00 0.00 0.00 0.00 0.00 0.00 0.00 0.00 0.00 0.00 0.00 0.00 0.00 0.00 0.00 0.00 0.00 0.00 0.00 0.00 0.00 0.00 0.00 0.00 0.00 0.00 0.00 0.00 0.00 0.00 0.00 0.00 0.00 0.00 0.00 0.00 0.02 0.01 0.01 0.00 0.00 0.02 0.07 0.05 0.03
0.00 0.00 0.00 0.00 0.00 0.00 0.00 0.00 0.00 0.00 0.00 0.00 0.00 0.00 0.00 0.00 0.00 0.00 0.00 0.00 0.00 0.00 0.00 0.00 0.00 0.00 0.00 0.00 0.00 0.00 0.00 0.00 0.00 0.00 0.00 0.00 0.00 0.00 0.00 0.00 0.03 0.02 0.02 0.02 0.01 0.04 0.12 0.07 0.03
0.00 0.00 0.00 0.00 0.00 0.00 0.00 0.00 0.00 0.00 0.00 0.00 0.00 0.00 0.00 0.00 0.00 0.00 0.00 0.00 0.00 0.00 0.00 0.00 0.00 0.00 0.00 0.00 0.00 0.00 0.00 0.00 0.00 0.00 0.00 0.00 0.00 0.00 0.00 0.01 0.05 0.02 0.03 0.08 0.11 0.13 0.19 0.07 0.04
0.00 0.00 0.00 0.00 0.00 0.00 0.00 0.00 0.00 0.00 0.00 0.00 0.00 0.00 0.00 0.00 0.00 0.00 0.00 0.00 0.00 0.00 0.00 0.00 0.00 0.00 0.00 0.00 0.00 0.00 0.00 0.00 0.00 0.00 0.00 0.00 0.00 0.00 0.00 0.01 0.07 0.11 0.23 0.27 0.35 0.40 0.14 0.07 0.01
0.00 0.00 0.00 0.00 0.00 0.00 0.00 0.00 0.00 0.00 0.00 0.00 0.00 0.00 0.00 0.00 0.00 0.00 0.00 0.00 0.00 0.00 0.00 0.00 0.00 0.00 0.00 0.00 0.00 0.00 0.00 0.00 0.00 0.00 0.00 0.00 0.00 0.00 0.00 0.01 0.10 0.14 0.14 0.11 0.08 0.06 0.02 0.09 0.11
0.00 0.00 0.00 0.00 0.00 0.00 0.00 0.00 0.00 0.00 0.00 0.00 0.00 0.00 0.00 0.00 0.00 0.00 0.00 0.00 0.00 0.00 0.00 0.00 0.00 0.00 0.00 0.00 0.00 0.00 0.00 0.00 0.00 0.00 0.00 0.00 0.00 0.00 0.00 0.00 0.05 0.08 0.05 0.05 0.05 0.07 0.03 0.08 0.25
0.00 0.00 0.00 0.00 0.00 0.00 0.00 0.00 0.00 0.00 0.00 0.00 0.00 0.00 0.00 0.00 0.00 0.00 0.00 0.00 0.00 0.00 0.00 0.00 0.00 0.00 0.00 0.00 0.00 0.00 0.00 0.00 0.00 0.00 0.00 0.00 0.00 0.00 0.00 0.00 0.01 0.06 0.05 0.02 0.09 0.11 0.15 0.19 0.30
0.00 0.00 0.00 0.00 0.00 0.00 0.00 0.00 0.00 0.00 0.00 0.00 0.00 0.00 0.00 0.00 0.00 0.00 0.00 0.00 0.00 0.00 0.00 0.00 0.01 0.00 0.00 0.00 0.00 0.00 0.00 0.00 0.00 0.00 0.00 0.00 0.00 0.00 0.00 0.00 0.00 0.07 0.04 0.05 0.12 0.12 0.15 0.54 0.40
0.00 0.00 0.00 0.00 0.00 0.00 0.00 0.00 0.00 0.00 0.00 0.00 0.00 0.00 0.00 0.00 0.00 0.02 0.01 0.00 0.00 0.00 0.00 0.00 0.01 0.02 0.01 0.00 0.00 0.00 0.00 0.00 0.00 0.00 0.00 0.00 0.00 0.00 0.00 0.00 0.01 0.05 0.06 0.04 0.23 0.17 0.10 0.46 0.39
0.00 0.00 0.00 0.00 0.00 0.00 0.00 0.00 0.00 0.00 0.00 0.00 0.00 0.00 0.00 0.00 0.01 0.06 0.07 0.02 0.01 0.01 0.00 0.01 0.03 0.02 0.03 0.02 0.02 0.00 0.00 0.00 0.00 0.00 0.00 0.00 0.00 0.00 0.00 0.00 0.01 0.02 0.05 0.03 0.04 0.08 0.09 0.15 0.22
0.00 0.00 0.00 0.00 0.00 0.00 0.00 0.00 0.00 0.00 0.00 0.00 0.00 0.00 0.00 0.00 0.00 0.00 0.02 0.03 0.02 0.01 0.02 0.07 0.11 0.07 0.03 0.06 0.02 0.02 0.02 0.01 0.00 0.00 0.00 0.00 0.00 0.00 0.00 0.00 0.00 0.01 0.02 0.01 0.02 0.06 0.05 0.08 0.16
0.00 0.00 0.00 0.00 0.00 0.00 0.00 0.00 0.00 0.00 0.00 0.00 0.00 0.00 0.00 0.00 0.00 0.00 0.00 0.00 0.02 0.02 0.01 0.04 0.09 0.12 0.14 0.20 0.19 0.14 0.10 0.09 0.01 0.05 0.01 0.00 0.00 0.00 0.00 0.00 0.00 0.00 0.01 0.01 0.03 0.04 0.04 0.11 0.21
0.00 0.00 0.00 0.00 0.00 0.00 0.00 0.00 0.00 0.00 0.00 0.00 0.00 0.00 0.00 0.00 0.00 0.00 0.00 0.00 0.00 0.00 0.00 0.00 0.01 0.02 0.05 0.07 0.16 0.20 0.27 0.32 0.15 0.18 0.10 0.02 0.00 0.01 0.00 0.01 0.01 0.00 0.00 0.01 0.02 0.03 0.06 0.10 0.23
0.00 0.00 0.00 0.00 0.00 0.00 0.00 0.00 0.00 0.00 0.00 0.00 0.00 0.00 0.00 0.00 0.00 0.00 0.00 0.00 0.00 0.00 0.00 0.00 0.00 0.03 0.03 0.02 0.05 0.12 0.15 0.23 0.20 0.22 0.34 0.30 0.17 0.06 0.03 0.01 0.01 0.01 0.01 0.01 0.02 0.03 0.07 0.07 0.12
0.00 0.00 0.00 0.00 0.00 0.00 0.00 0.00 0.00 0.00 0.00 0.00 0.00 0.00 0.00 0.00 0.00 0.00 0.00 0.00 0.00 0.00 0.00 0.00 0.00 0.02 0.04 0.03 0.04 0.04 0.07 0.09 0.14 0.13 0.24 0.29 0.26 0.27 0.37 0.24 0.08 0.04 0.03 0.02 0.02 0.02 0.03 0.04 0.09
0.00 0.00 0.00 0.00 0.00 0.00 0.00 0.00 0.00 0.00 0.00 0.00 0.00 0.00 0.00 0.00 0.00 0.00 0.00 0.00 0.00 0.00 0.00 0.00 0.00 0.00 0.01 0.04 0.05 0.05 0.09 0.06 0.05 0.04 0.10 0.31 0.18 0.22 0.26 0.27 0.28 0.22 0.14 0.04 0.01 0.01 0.02 0.02 0.04
0.00 0.00 0.00 0.00 0.00 0.00 0.00 0.00 0.00 0.00 0.00 0.00 0.00 0.00 0.00 0.00 0.00 0.00 0.00 0.00 0.00 0.00 0.00 0.00 0.00 0.00 0.01 0.08 0.12 0.12 0.09 0.08 0.03 0.02 0.01 0.05 0.16 0.07 0.14 0.13 0.10 0.31 0.36 0.24 0.15 0.06 0.03 0.02 0.05
0.00 0.00 0.00 0.00 0.00 0.00 0.00 0.00 0.00 0.00 0.00 0.00 0.00 0.00 0.00 0.00 0.00 0.00 0.00 0.00 0.00 0.00 0.00 0.00 0.00 0.00 0.00 0.03 0.03 0.04 0.01 0.02 0.04 0.04 0.09 0.03 0.18 0.13 0.02 0.03 0.05 0.13 0.16 0.12 0.25 0.36 0.25 0.16 0.12
0.00 0.00 0.00 0.00 0.00 0.00 0.00 0.00 0.00 0.00 0.00 0.00 0.00 0.00 0.00 0.00 0.00 0.00 0.00 0.00 0.00 0.00 0.00 0.00 0.00 0.00 0.00 0.00 0.02 0.06 0.09 0.11 0.22 0.20 0.20 0.13 0.07 0.17 0.10 0.08 0.08 0.12 0.24 0.34 0.33 0.59 0.63 0.42 0.34
0.01 0.00 0.00 0.00 0.00 0.00 0.01 0.00 0.00 0.00 0.00 0.00 0.00 0.00 0.00 0.00 0.00 0.00 0.00 0.00 0.00 0.00 0.00 0.00 0.00 0.00 0.00 0.00 0.01 0.05 0.15 0.20 0.36 0.31 0.25 0.23 0.24 0.21 0.16 0.12 0.18 0.37 0.77 0.94 1.06 1.18 1.19 0.94 0.83
0.04 0.00 0.01 0.01 0.02 0.04 0.01 0.07 0.00 0.00 0.00 0.00 0.00 0.01 0.04 0.07 0.01 0.00 0.00 0.00 0.00 0.00 0.00 0.00 0.00 0.00 0.00 0.00 0.01 0.02 0.01 0.00 0.01 0.04 0.17 0.26 0.52 0.69 0.58 0.36 0.40 0.37 0.44 0.53 0.69 0.86 1.02 1.18 1.22
0.03 0.01 0.02 0.02 0.02 0.04 0.01 0.06 0.02 0.00 0.00 0.00 0.00 0.02 0.09 0.12 0.04 0.00 0.00 0.00 0.00 0.00 0.00 0.00 0.00 0.00 0.00 0.00 0.01 0.03 0.03 0.04 0.06 0.04 0.05 0.09 0.22 0.28 0.53 0.60 0.51 0.48 0.43 0.34 0.34 0.27 0.24 0.23 0.33
0.04 0.04 0.01 0.01 0.06 0.18 0.02 0.02 0.04 0.00 0.01 0.00 0.05 0.05 0.05 0.08 0.03 0.00 0.00 0.00 0.00 0.00 0.00 0.00 0.00 0.00 0.00 0.01 0.03 0.04 0.03 0.05 0.05 0.02 0.03 0.06 0.09 0.15 0.22 0.44 0.36 0.38 0.49 0.46 0.55 0.61 0.46 0.31 0.23
0.06 0.14 0.18 0.15 0.13 0.08 0.00 0.06 0.05 0.02 0.04 0.08 0.17 0.38 0.18 0.03 0.02 0.01 0.01 0.01 0.00 0.00 0.01 0.02 0.03 0.01 0.01 0.01 0.03 0.06 0.08 0.06 0.06 0.04 0.06 0.13 0.25 0.31 0.32 0.44 0.39 0.31 0.36 0.37 0.38 0.53 0.80 0.86 0.53
0.02 0.05 0.09 0.12 0.09 0.05 0.04 0.14 0.08 0.14 0.25 0.56 0.46 0.53 0.37 0.13 0.03 0.00 0.02 0.03 0.02 0.01 0.04 0.10 0.09 0.14 0.14 0.16 0.18 0.19 0.20 0.19 0.17 0.15 0.19 0.14 0.10 0.11 0.31 0.63 0.61 0.48 0.42 0.47 0.60 0.64 0.68 0.93 1.12
0.09 0.07 0.01 0.10 0.11 0.13 0.05 0.03 0.09 0.53 1.07 0.85 0.75 0.58 0.36 0.21 0.09 0.04 0.06 0.08 0.05 0.04 0.07 0.15 0.14 0.10 0.18 0.33 0.29 0.30 0.31 0.36 0.37 0.33 0.43 0.37 0.24 0.20 0.22 0.18 0.39 0.49 0.47 0.39 0.48 0.51 0.47 0.49 0.77
0.01 0.02 0.13 0.18 0.11 0.07 0.02 0.16 0.49 0.54 1.00 0.83 0.71 0.62 0.45 0.19 0.11 0.05 0.04 0.07 0.07 0.09 0.14 0.25 0.25 0.27 0.29 0.40 0.47 0.46 0.42 0.43 0.47 0.44 0.49 0.43 0.37 0.31 0.30 0.22 0.39 0.45 0.56 0.55 0.35 0.36 0.48 0.60 0.77
0.00 0.04 0.11 0.23 0.14 0.13 0.07 0.36 0.68 0.94 0.83 0.48 0.43 0.33 0.17 0.02 0.01 0.01 0.01 0.02 0.05 0.08 0.15 0.18 0.34 0.62 0.60 0.55 0.70 0.67 0.48 0.47 0.41 0.44 0.47 0.53 0.46 0.47 0.40 0.38 0.48 0.39 0.49 0.64 0.66 0.56 0.69 0.83 0.92
0.00 0.01 0.09 0.28 0.34 0.37 0.30 0.39 0.38 0.46 0.37 0.12 0.02 0.02 0.04 0.01 0.00 0.00 0.00 0.00 0.06 0.12 0.12 0.14 0.22 0.51 0.62 0.53 0.64 0.59 0.55 0.56 0.45 0.45 0.50 0.42 0.37 0.47 0.58 0.46 0.51 0.47 0.43 0.51 0.88 0.97 0.90 0.83 0.97